EW4883 Weather Reports


Display with metric or nautical units.
time (UTC)temp
F
wind
direction
speed
MPH
gust
MPH
rain 1hr
in
rain 24hr
in
rain mn
in
humidity
%
barometer
mb
20260508151554 71 360 3.0 5.0 0.00 0.00 0.00 30 1015.7
20260508151049 71 360 2.0 5.0 0.00 0.00 0.00 31 1015.7
20260508150552 71 360 2.0 5.0 0.00 0.00 0.00 31 1015.6
20260508150122 71 360 2.0 5.0 0.00 0.00 0.00 30 1015.6
20260508145553 71 360 1.0 4.0 0.00 0.00 0.00 31 1015.6
20260508145050 71 360 2.0 4.0 0.00 0.00 0.00 31 1015.6
20260508144602 71 360 1.0 4.0 0.00 0.00 0.00 32 1015.6
20260508144052 71 360 2.0 4.0 0.00 0.00 0.00 31 1015.6
20260508143556 71 360 1.0 3.0 0.00 0.00 0.00 32 1015.6
20260508143053 70 360 1.0 4.0 0.00 0.00 0.00 33 1015.5
20260508142551 70 0 1.0 4.0 0.00 0.00 0.00 33 1015.5
20260508142055 70 360 2.0 4.0 0.00 0.00 0.00 33 1015.5
20260508141602 70 360 0.0 3.0 0.00 0.00 0.00 33 1015.4
20260508141051 69 360 1.0 2.0 0.00 0.00 0.00 34 1015.4
20260508140551 69 0 0.0 2.0 0.00 0.00 0.00 34 1015.3
20260508135552 67 0 0.0 3.0 0.00 0.00 0.00 36 1015.2
20260508135049 67 360 0.0 3.0 0.00 0.00 0.00 36 1015.2
20260508134557 67 360 1.0 3.0 0.00 0.00 0.00 35 1015.1
20260508134052 66 0 0.0 2.0 0.00 0.00 0.00 36 1015.1
20260508133552 66 0 0.0 0.0 0.00 0.00 0.00 38 1015.1
20260508133056 64 0 0.0 0.0 0.00 0.00 0.00 42 1015.1
20260508132553 62 0 0.0 2.0 0.00 0.00 0.00 45 1015.1
20260508132053 61 0 0.0 2.0 0.00 0.00 0.00 46 1015.0
20260508131600 60 0 0.0 2.0 0.00 0.00 0.00 46 1014.9
20260508131054 59 0 0.0 1.0 0.00 0.00 0.00 47 1014.9
20260508130552 59 0 0.0 1.0 0.00 0.00 0.00 48 1014.8
20260508130054 58 0 0.0 1.0 0.00 0.00 0.00 48 1014.7
20260508125552 58 0 0.0 0.0 0.00 0.00 0.00 48 1014.6
20260508125052 57 0 0.0 2.0 0.00 0.00 0.00 48 1014.5
20260508124600 57 0 0.0 2.0 0.00 0.00 0.00 48 1014.5
20260508124055 57 0 0.0 2.0 0.00 0.00 0.00 49 1014.4
20260508123552 57 0 0.0 0.0 0.00 0.00 0.00 48 1014.4
20260508123056 57 0 0.0 0.0 0.00 0.00 0.00 48 1014.4
20260508122549 57 0 0.0 0.0 0.00 0.00 0.00 48 1014.3
20260508122052 57 0 0.0 0.0 0.00 0.00 0.00 48 1014.3
20260508121552 57 0 0.0 0.0 0.00 0.00 0.00 48 1014.1
20260508121052 57 0 0.0 0.0 0.00 0.00 0.00 48 1014.2
20260508120551 58 0 0.0 0.0 0.00 0.00 0.00 47 1014.1
20260508120059 58 0 0.0 0.0 0.00 0.00 0.00 47 1014.1
20260508115553 58 0 0.0 0.0 0.00 0.00 0.00 47 1014.1
20260508115051 58 0 0.0 0.0 0.00 0.00 0.00 47 1014.1
20260508114601 58 0 0.0 1.0 0.00 0.00 0.00 46 1014.1
20260508114051 58 0 0.0 2.0 0.00 0.00 0.00 46 1014.1
20260508113553 59 0 0.0 2.0 0.00 0.00 0.00 45 1014.1
20260508113124 59 0 0.0 2.0 0.00 0.00 0.00 44 1014.0
20260508112552 59 0 0.0 0.0 0.00 0.00 0.00 44 1014.0
20260508112052 59 0 0.0 0.0 0.00 0.00 0.00 44 1014.0
20260508111556 59 0 0.0 1.0 0.00 0.00 0.00 45 1013.9
20260508111053 59 0 0.0 3.0 0.00 0.00 0.00 45 1013.9
20260508110553 59 0 0.0 3.0 0.00 0.00 0.00 45 1013.9
20260508110053 59 0 0.0 2.0 0.00 0.00 0.00 45 1013.9
20260508105552 59 0 1.0 2.0 0.00 0.00 0.00 45 1013.8
20260508105052 59 0 0.0 0.0 0.00 0.00 0.00 45 1013.8
20260508104559 59 0 0.0 0.0 0.00 0.00 0.00 45 1013.8
20260508104052 59 0 0.0 0.0 0.00 0.00 0.00 45 1013.8
20260508103553 59 0 0.0 0.0 0.00 0.00 0.00 44 1013.8
20260508103107 59 0 0.0 0.0 0.00 0.00 0.00 44 1013.8
20260508102551 60 0 0.0 0.0 0.00 0.00 0.00 43 1013.8
20260508102052 60 0 0.0 0.0 0.00 0.00 0.00 43 1013.8
20260508101551 60 0 0.0 2.0 0.00 0.00 0.00 44 1013.8
20260508101052 60 0 0.0 2.0 0.00 0.00 0.00 43 1013.8
20260508100551 60 0 0.0 2.0 0.00 0.00 0.00 43 1013.8
20260508100052 60 0 0.0 0.0 0.00 0.00 0.00 43 1013.8
20260508095551 61 0 0.0 0.0 0.00 0.00 0.00 42 1013.7
20260508095051 61 0 0.0 0.0 0.00 0.00 0.00 42 1013.6
20260508094600 61 0 0.0 0.0 0.00 0.00 0.00 40 1013.6
20260508094048 62 0 0.0 0.0 0.00 0.00 0.00 40 1013.6
20260508093552 62 0 0.0 0.0 0.00 0.00 0.00 38 1013.6
20260508093056 63 0 0.0 0.0 0.00 0.00 0.00 38 1013.5
20260508092552 63 0 0.0 0.0 0.00 0.00 0.00 38 1013.5
20260508092052 64 0 0.0 0.0 0.00 0.00 0.00 37 1013.6
20260508091553 65 0 0.0 0.0 0.00 0.00 0.00 35 1013.6
20260508091052 66 0 0.0 0.0 0.00 0.00 0.00 34 1013.6
20260508090552 66 0 0.0 4.0 0.00 0.00 0.00 34 1013.6
20260508090054 65 0 0.0 4.0 0.00 0.00 0.00 34 1013.8
20260508085551 64 0 1.0 4.0 0.00 0.00 0.00 35 1013.8
20260508085051 64 0 0.0 2.0 0.00 0.00 0.00 37 1013.8
20260508084552 64 0 0.0 2.0 0.00 0.00 0.00 37 1013.8
20260508084053 64 132 0.0 2.0 0.00 0.00 0.00 37 1013.8
20260508083552 64 0 0.0 2.0 0.00 0.00 0.00 37 1013.8
20260508083052 65 0 0.0 2.0 0.00 0.00 0.00 36 1013.8
20260508082552 65 0 0.0 0.0 0.00 0.00 0.00 36 1013.9
20260508082052 65 0 0.0 1.0 0.00 0.00 0.00 35 1013.8
20260508081604 65 0 0.0 2.0 0.00 0.00 0.00 35 1013.8
20260508081049 65 0 0.0 2.0 0.00 0.00 0.00 35 1013.9
20260508080552 65 0 0.0 1.0 0.00 0.00 0.00 36 1014.0
20260508080052 65 0 0.0 0.0 0.00 0.00 0.00 36 1014.1
20260508075552 65 0 0.0 0.0 0.00 0.00 0.00 35 1014.1
20260508075052 65 0 0.0 2.0 0.00 0.00 0.00 35 1014.2
20260508074553 66 0 0.0 2.0 0.00 0.00 0.00 34 1014.3
20260508074052 66 132 0.0 2.0 0.00 0.00 0.00 34 1014.3
20260508073552 66 0 0.0 0.0 0.00 0.00 0.00 34 1014.3
20260508073059 67 0 0.0 0.0 0.00 0.00 0.00 32 1014.4
20260508072551 67 0 0.0 1.0 0.00 0.00 0.00 32 1014.5
20260508072051 67 0 0.0 2.0 0.00 0.00 0.00 31 1014.5
20260508071550 68 0 0.0 2.0 0.00 0.00 0.00 31 1014.5
20260508071053 68 132 0.0 2.0 0.00 0.00 0.00 30 1014.5
20260508070553 68 0 0.0 2.0 0.00 0.00 0.00 30 1014.4
20260508070101 68 0 0.0 2.0 0.00 0.00 0.00 30 1014.5
20260508065552 69 130 0.0 2.0 0.00 0.00 0.00 28 1014.4
20260508065052 70 0 0.0 1.0 0.00 0.00 0.00 27 1014.5
20260508064606 70 0 0.0 1.0 0.00 0.00 0.00 27 1014.4
20260508064052 70 0 0.0 1.0 0.00 0.00 0.00 27 1014.4
20260508063553 70 0 0.0 3.0 0.00 0.00 0.00 27 1014.4
20260508063055 71 0 0.0 3.0 0.00 0.00 0.00 26 1014.5
20260508062552 71 0 0.0 5.0 0.00 0.00 0.00 26 1014.6
20260508062052 71 0 0.0 5.0 0.00 0.00 0.00 26 1014.6
20260508061559 72 129 2.0 5.0 0.00 0.00 0.00 26 1014.6
20260508061053 72 0 0.0 0.0 0.00 0.00 0.00 25 1014.5
20260508060552 73 0 0.0 0.0 0.00 0.00 0.00 25 1014.5
20260508060059 73 0 0.0 0.0 0.00 0.00 0.00 24 1014.5
20260508055553 73 0 0.0 2.0 0.00 0.00 0.00 24 1014.5
20260508055051 73 0 0.0 4.0 0.00 0.00 0.00 24 1014.5
20260508054625 74 0 0.0 8.0 0.00 0.00 0.00 23 1014.5
20260508054048 74 0 1.0 8.0 0.00 0.00 0.00 23 1014.5
20260508053552 74 132 3.0 8.0 0.00 0.00 0.00 23 1014.6
20260508053059 75 121 4.0 12.0 0.00 0.00 0.00 22 1014.6
20260508052558 75 59 6.0 12.0 0.00 0.00 0.00 21 1014.5
20260508052055 76 35 4.0 11.0 0.00 0.00 0.00 21 1014.5
20260508051600 76 344 2.0 11.0 0.00 0.00 0.00 20 1014.4
20260508051052 76 186 4.0 12.0 0.00 0.00 0.00 21 1014.1
20260508050552 76 207 4.0 12.0 0.00 0.00 0.00 20 1013.9
20260508050057 76 223 2.0 12.0 0.00 0.00 0.00 20 1013.8
20260508045551 76 225 4.0 12.0 0.00 0.00 0.00 20 1013.9
20260508045051 76 241 3.0 12.0 0.00 0.00 0.00 20 1013.8
20260508044556 77 202 3.0 10.0 0.00 0.00 0.00 20 1013.9
20260508044051 77 205 3.0 11.0 0.00 0.00 0.00 19 1013.9
20260508043556 77 193 4.0 11.0 0.00 0.00 0.00 19 1013.9
20260508043100 77 216 4.0 13.0 0.00 0.00 0.00 19 1013.7
20260508042551 77 210 3.0 18.0 0.00 0.00 0.00 19 1013.8
20260508042048 77 217 5.0 18.0 0.00 0.00 0.00 19 1013.7
20260508041555 77 198 5.0 15.0 0.00 0.00 0.00 19 1013.7
20260508041052 78 230 5.0 15.0 0.00 0.00 0.00 19 1013.6
20260508040552 78 227 6.0 17.0 0.00 0.00 0.00 19 1013.6
20260508035556 78 184 6.0 17.0 0.00 0.00 0.00 18 1013.4
20260508035052 78 211 6.0 17.0 0.00 0.00 0.00 18 1013.4
20260508034556 78 236 7.0 15.0 0.00 0.00 0.00 18 1013.3
20260508034052 78 219 5.0 14.0 0.00 0.00 0.00 18 1013.2
20260508033551 79 240 5.0 17.0 0.00 0.00 0.00 18 1013.0
20260508033051 79 141 8.0 17.0 0.00 0.00 0.00 18 1012.9
20260508032552 79 217 5.0 17.0 0.00 0.00 0.00 18 1012.9
20260508032051 79 217 5.0 11.0 0.00 0.00 0.00 17 1012.8
20260508031603 79 232 5.0 10.0 0.00 0.00 0.00 17 1012.7
20260508031052 79 221 3.0 8.0 0.00 0.00 0.00 17 1012.5
20260508030552 79 228 3.0 12.0 0.00 0.00 0.00 17 1012.5
20260508030103 79 215 4.0 12.0 0.00 0.00 0.00 17 1012.5
20260508025551 79 227 5.0 12.0 0.00 0.00 0.00 18 1012.4
20260508025052 79 225 4.0 12.0 0.00 0.00 0.00 17 1012.3
20260508024554 79 211 3.0 12.0 0.00 0.00 0.00 17 1012.3
20260508024056 80 215 3.0 10.0 0.00 0.00 0.00 17 1012.4
20260508023551 80 191 3.0 13.0 0.00 0.00 0.00 17 1012.4
20260508023058 80 209 3.0 13.0 0.00 0.00 0.00 17 1012.3
20260508022551 80 214 4.0 16.0 0.00 0.00 0.00 17 1012.2
20260508022052 81 202 4.0 16.0 0.00 0.00 0.00 16 1012.2
20260508021606 82 360 6.0 16.0 0.00 0.00 0.00 15 1012.1
20260508021051 83 360 3.0 10.0 0.00 0.00 0.00 12 1012.0
20260508020552 83 360 4.0 11.0 0.00 0.00 0.00 12 1011.8
20260508020054 83 360 3.0 11.0 0.00 0.00 0.00 12 1011.6
20260508015551 83 250 6.0 12.0 0.00 0.00 0.00 11 1011.5
20260508015052 84 269 5.0 13.0 0.00 0.00 0.00 12 1011.4
20260508014552 84 259 5.0 13.0 0.00 0.00 0.00 12 1011.3
20260508014049 84 309 7.0 13.0 0.00 0.00 0.00 11 1011.3
20260508013552 84 274 4.0 13.0 0.00 0.00 0.00 12 1011.2
20260508013053 85 255 6.0 13.0 0.00 0.00 0.00 11 1011.2
20260508012552 85 277 5.0 12.0 0.00 0.00 0.00 12 1011.2
20260508012052 85 285 7.0 14.0 0.00 0.00 0.00 12 1011.1
20260508011556 85 274 8.0 14.0 0.00 0.00 0.00 11 1011.1
20260508011050 86 242 6.0 15.0 0.00 0.00 0.00 12 1011.1
20260508010550 86 360 6.0 15.0 0.00 0.00 0.00 12 1011.1
20260508010050 86 360 7.0 15.0 0.00 0.00 0.00 11 1011.0
20260508005553 86 360 5.0 14.0 0.00 0.00 0.00 12 1010.9
20260508005053 86 286 6.0 14.0 0.00 0.00 0.00 11 1010.9
20260508004553 86 360 6.0 13.0 0.00 0.00 0.00 11 1010.8
20260508004048 86 360 5.0 15.0 0.00 0.00 0.00 12 1010.8
20260508003552 87 360 7.0 15.0 0.00 0.00 0.00 11 1010.7
20260508003052 87 238 3.0 8.0 0.00 0.00 0.00 12 1010.6
20260508002552 87 296 2.0 11.0 0.00 0.00 0.00 12 1010.7
20260508002050 87 0 5.0 11.0 0.00 0.00 0.00 12 1010.7
20260508001553 88 302 3.0 12.0 0.00 0.00 0.00 12 1010.7
20260508001124 87 333 3.0 12.0 0.00 0.00 0.00 12 1010.7
20260508000550 87 302 4.0 12.0 0.00 0.00 0.00 12 1010.6
20260508000113 87 292 4.0 12.0 0.00 0.00 0.00 12 1010.6
20260507235555 87 246 2.0 12.0 0.00 0.00 0.00 12 1010.6
20260507235049 87 305 5.0 12.0 0.00 0.00 0.00 12 1010.7
20260507234553 87 22 4.0 14.0 0.00 0.00 0.00 12 1010.7
20260507234055 87 262 4.0 14.0 0.00 0.00 0.00 12 1010.6
20260507233549 88 288 6.0 14.0 0.00 0.00 0.00 12 1010.6
20260507233055 88 333 5.0 13.0 0.00 0.00 0.00 12 1010.6
20260507232549 87 360 6.0 13.0 0.00 0.00 0.00 12 1010.5
20260507232049 87 360 8.0 13.0 0.00 0.00 0.00 12 1010.5
20260507231559 87 360 4.0 10.0 0.00 0.00 0.00 12 1010.6
20260507231051 87 360 4.0 12.0 0.00 0.00 0.00 12 1010.5
20260507230554 87 257 3.0 12.0 0.00 0.00 0.00 12 1010.6
20260507230056 87 309 5.0 11.0 0.00 0.00 0.00 12 1010.8
20260507225549 86 0 1.0 8.0 0.00 0.00 0.00 13 1010.7
20260507225050 86 360 3.0 13.0 0.00 0.00 0.00 13 1010.9
20260507224553 86 324 3.0 13.0 0.00 0.00 0.00 13 1011.0
20260507224052 87 326 6.0 13.0 0.00 0.00 0.00 13 1011.0
20260507223551 87 315 2.0 10.0 0.00 0.00 0.00 13 1010.9
20260507223055 87 327 2.0 7.0 0.00 0.00 0.00 12 1010.9
20260507222549 87 167 1.0 9.0 0.00 0.00 0.00 12 1010.9
20260507222049 87 360 1.0 11.0 0.00 0.00 0.00 13 1011.0
20260507221601 87 352 5.0 11.0 0.00 0.00 0.00 12 1011.2
20260507221049 87 352 3.0 12.0 0.00 0.00 0.00 12 1011.2
20260507220554 87 352 6.0 12.0 0.00 0.00 0.00 12 1011.2
20260507220056 87 360 7.0 16.0 0.00 0.00 0.00 12 1011.3
20260507215550 87 30 4.0 16.0 0.00 0.00 0.00 12 1011.3
20260507215050 88 317 4.0 16.0 0.00 0.00 0.00 12 1011.4
20260507214554 87 0 3.0 15.0 0.00 0.00 0.00 11 1011.4
20260507214049 88 57 6.0 15.0 0.00 0.00 0.00 11 1011.3
20260507213550 88 244 2.0 8.0 0.00 0.00 0.00 11 1011.5
20260507213052 88 0 2.0 6.0 0.00 0.00 0.00 11 1011.7
20260507212549 88 86 0.0 14.0 0.00 0.00 0.00 11 1011.7
20260507212050 87 100 3.0 14.0 0.00 0.00 0.00 12 1011.7
20260507211600 87 10 2.0 14.0 0.00 0.00 0.00 11 1011.7
20260507211053 87 40 6.0 14.0 0.00 0.00 0.00 11 1011.8
20260507210552 86 82 7.0 14.0 0.00 0.00 0.00 11 1011.9
20260507210051 86 57 6.0 12.0 0.00 0.00 0.00 11 1011.9
20260507205549 87 44 6.0 12.0 0.00 0.00 0.00 11 1012.0
20260507205050 86 360 1.0 13.0 0.00 0.00 0.00 11 1012.0
20260507204558 86 57 4.0 13.0 0.00 0.00 0.00 11 1012.1
20260507204050 86 360 7.0 17.0 0.00 0.00 0.00 11 1012.2
20260507203552 86 30 9.0 17.0 0.00 0.00 0.00 11 1012.1
20260507203102 86 37 2.0 8.0 0.00 0.00 0.00 11 1012.3
20260507202552 86 257 3.0 7.0 0.00 0.00 0.00 11 1012.2
20260507202049 86 255 0.0 15.0 0.00 0.00 0.00 11 1012.2
20260507201556 86 9 7.0 15.0 0.00 0.00 0.00 11 1012.3
20260507201050 86 15 3.0 12.0 0.00 0.00 0.00 11 1012.4
20260507200550 85 254 4.0 9.0 0.00 0.00 0.00 11 1012.4
20260507200055 85 0 3.0 7.0 0.00 0.00 0.00 11 1012.5
20260507195552 85 223 1.0 7.0 0.00 0.00 0.00 11 1012.7
20260507195054 85 43 1.0 15.0 0.00 0.00 0.00 12 1012.7
20260507194557 84 84 5.0 15.0 0.00 0.00 0.00 11 1012.8
20260507194049 84 60 1.0 8.0 0.00 0.00 0.00 12 1012.9
20260507193550 84 360 2.0 8.0 0.00 0.00 0.00 11 1012.8
20260507193100 84 360 4.0 8.0 0.00 0.00 0.00 11 1013.0
20260507192552 84 350 1.0 8.0 0.00 0.00 0.00 11 1013.2
20260507192048 84 0 2.0 9.0 0.00 0.00 0.00 12 1013.4
20260507191600 84 360 1.0 9.0 0.00 0.00 0.00 14 1013.4
20260507191048 84 360 3.0 8.0 0.00 0.00 0.00 13 1013.4
20260507190549 84 360 1.0 9.0 0.00 0.00 0.00 13 1013.5
20260507190056 84 360 3.0 9.0 0.00 0.00 0.00 13 1013.5
20260507185549 84 313 2.0 8.0 0.00 0.00 0.00 14 1013.6
20260507185052 84 51 3.0 8.0 0.00 0.00 0.00 13 1013.6
20260507184555 83 360 2.0 5.0 0.00 0.00 0.00 14 1013.6
20260507184052 83 360 2.0 9.0 0.00 0.00 0.00 14 1013.7
20260507183555 83 360 2.0 9.0 0.00 0.00 0.00 15 1013.8
20260507183052 82 360 3.0 8.0 0.00 0.00 0.00 15 1013.8
20260507182552 82 360 1.0 8.0 0.00 0.00 0.00 16 1013.9
20260507182049 81 360 2.0 10.0 0.00 0.00 0.00 14 1013.9
20260507181553 81 360 4.0 10.0 0.00 0.00 0.00 15 1014.0
20260507181049 81 360 4.0 9.0 0.00 0.00 0.00 15 1014.1
20260507180552 81 360 3.0 6.0 0.00 0.00 0.00 16 1014.1
20260507180055 81 360 2.0 6.0 0.00 0.00 0.00 17 1014.1
20260507175549 81 0 0.0 11.0 0.00 0.00 0.00 17 1014.1
20260507175052 80 360 1.0 11.0 0.00 0.00 0.00 17 1014.2
20260507174625 80 360 4.0 11.0 0.00 0.00 0.00 17 1014.3
20260507174050 80 360 3.0 7.0 0.00 0.00 0.00 17 1014.2
20260507173552 79 360 1.0 7.0 0.00 0.00 0.00 17 1014.3
20260507173056 79 95 2.0 7.0 0.00 0.00 0.00 17 1014.3
20260507172550 79 360 0.0 6.0 0.00 0.00 0.00 18 1014.4
20260507172050 78 360 1.0 9.0 0.00 0.00 0.00 18 1014.4
20260507171609 78 360 1.0 9.0 0.00 0.00 0.00 19 1014.4
20260507171052 77 360 1.0 9.0 0.00 0.00 0.00 19 1014.5
20260507170553 77 360 3.0 9.0 0.00 0.00 0.00 19 1014.5
20260507170057 77 360 4.0 9.0 0.00 0.00 0.00 19 1014.5
20260507165555 77 360 4.0 9.0 0.00 0.00 0.00 19 1014.6
20260507165049 77 360 3.0 9.0 0.00 0.00 0.00 19 1014.6
20260507164558 77 360 3.0 6.0 0.00 0.00 0.00 20 1014.6
20260507164052 76 0 2.0 6.0 0.00 0.00 0.00 20 1014.6
20260507163552 76 360 2.0 9.0 0.00 0.00 0.00 20 1014.8
20260507163055 75 360 2.0 9.0 0.00 0.00 0.00 21 1014.9
20260507162551 74 360 3.0 9.0 0.00 0.00 0.00 21 1015.0
20260507162052 74 360 5.0 9.0 0.00 0.00 0.00 21 1015.0
20260507161558 74 360 4.0 8.0 0.00 0.00 0.00 21 1015.0
20260507161056 74 360 3.0 8.0 0.00 0.00 0.00 22 1015.1
20260507160551 74 360 2.0 8.0 0.00 0.00 0.00 22 1015.0
20260507160113 73 360 2.0 8.0 0.00 0.00 0.00 22 1015.1
20260507155556 73 360 3.0 8.0 0.00 0.00 0.00 22 1015.3
20260507155055 72 360 2.0 10.0 0.00 0.00 0.00 23 1015.3
20260507154552 72 360 4.0 10.0 0.00 0.00 0.00 23 1015.3
20260507154053 72 360 3.0 9.0 0.00 0.00 0.00 23 1015.3
20260507153559 72 360 3.0 8.0 0.00 0.00 0.00 24 1015.2
20260507153058 72 360 3.0 8.0 0.00 0.00 0.00 25 1015.2
20260507152600 72 360 2.0 6.0 0.00 0.00 0.00 25 1015.3
20260507152055 71 360 3.0 9.0 0.00 0.00 0.00 25 1015.4